Гран При Италии: вторая тренировка

Гран При Италии: вторая тренировка

Во второй сессии практики команды оценили разницу между работой двух составов резины на длинной серии кругов и продолжили работать над адаптацией аэродинамических пакетов, привезенных специально для Монцы.

Из-за проблем с машиной, возникших утром, Льюис Хэмилтон потерял много времени. Британец смог поработать на трассе лишь последние полчаса. Остальные гонщики смогли выполнить намеченную командами программу.

Учитывая, что на треке в Монце почти 75 % круга проходится с педалью в пол, то на торможении из-за небольшой прижимной силой болидам не хватало стабильности. Однако, серьёзных инцидентов не произошло.

Нико Росберг возглавил протокол со временем 1:26.225. Гонщики Ferrari на радость домашней публике показали третье и четвёртое время.

 
Дата05 сентября 2014Погодалегкая облачность
Киевское время15:00-16:30 ч.Температура24-25°C
Местное время14:00-15:30 UhrВлажность55-62%
Участники22Давление993 mBar
Рекорд в гонке1:21.046 мин.Асфальт35-41°C
Рекорд в квалификации1:20.089 мин.Ветер1,5 м/с, переменный

Результаты

Поз.ПилотКомандаВремяОтставаниеот пред.Круги
16N. RosbergMercedes1:26.225  41
244L. HamiltonMercedes1:26.286+0:00.061+0:00.06116
37K. RäikkönenFerrari1:26.331+0:00.106+0:00.04531
414F. AlonsoFerrari1:26.565+0:00.340+0:00.23426
577V. BottasWilliams1:26.758+0:00.533+0:00.19334
61S. VettelRed Bull1:26.762+0:00.537+0:00.00427
722J. ButtonMcLaren1:26.762+0:00.537+0:00.00034
820K. MagnussenMcLaren1:26.881+0:00.656+0:00.11944
919F. MassaWilliams1:26.935+0:00.710+0:00.05433
103D. RicciardoRed Bull1:26.992+0:00.767+0:00.05737
1111S. PerezForce India1:27.079+0:00.854+0:00.08742
1227N. HülkenbergForce India1:27.227+0:01.002+0:00.14839
1326D. KwjatToro Rosso1:27.476+0:01.251+0:00.24937
1421E. GutierrezSauber1:27.840+0:01.615+0:00.36433
1525J. VergneToro Rosso1:27.929+0:01.704+0:00.08933
1699A. SutilSauber1:28.029+0:01.804+0:00.10035
1717J. BianchiMarussia1:28.659+0:02.434+0:00.63034
1813P. MaldonadoLotus1:28.700+0:02.475+0:00.04142
194M. ChiltonMarussia1:28.786+0:02.561+0:00.08629
208R. GrosjeanLotus1:29.085+0:02.860+0:00.29929
2110K. KobayashiCaterham1:29.178+0:02.953+0:00.09332
229M. EricssonCaterham1:29.275+0:03.050+0:00.09737
 107 % барьер1:32.260 
от пред. = от предыдущего

Будьте частиною чогось більшого

Написати коментар
Показати коментарі
Про цю статтю
Серія Формула 1
Тип статті Важливі новини